Aérodrome :
LOGIN :

S'inscrire | Disclaimer

   EN    FR    IT 

 










Légende :    VFR   VFR Marginal   IFR   IFR Intensif   IFR Très Intensif
Visi : 
Plafond : 
>= 8 km
>= 3000ft
5 à 8 km
1000 à 3000 ft
1500m à 5 km
500 à 1000 ft
800 à 1500m
200 à 500 ft
< 800m
< 200 ft
Symboles :   Orages  Brouillard  Fortes neiges  Fortes précipitations  Vent > 20 kt
SIGMETs :   Divers  Orages  Givrage  Turbulence  Onde Orograph.  Cendres Volcan.







- Altitude de l'aérodrome : 171 ft
- Code IATA : EGC
- Voir les cartes d'approche


LFBE - Bergerac

DERNIER METAR :
  • 210000Z AUTO 08003KT CAVOK 11/10 Q1024 NOSIG

METARs EXPIRÉS :
  • 202330Z AUTO 06002KT CAVOK 12/11 Q1024 NOSIG
  • 202300Z AUTO 06002KT CAVOK 12/11 Q1024
  • 202230Z AUTO 00000KT CAVOK 13/10 Q1024
  • 202200Z AUTO 08002KT CAVOK 13/11 Q1024

TAF TAF LFBE
Valide du 21 à 00h jusqu'au 22 à 00h UTC


202300Z 2100/2124 VRB02KT CAVOK
BECMG 2109/2111 06007KT
Pas de NOTAMs connus pour ce terrain.



MET'MAP, la Météo Aéronautique d'un coup d'oeil ! - Copyright ORBIFLY Décembre 2007 - Disclaimer

ORBIFLY MET'MAP TEAM :

Programmation & Développement : Alexandra Zaïnal
Conception & Développement : Baudouin d'Aumeries
Co-Programmation & Développement : Marc-Olivier Méhu
Soutien technique & logistique : Manuel Goepfert

Contact : metmap@orbifly.com




SOURCES & CREDITS :

   NOAA